Lid_Strength_Index
2 2 1 1 1 0 0 -0 0 -1 -0 0 1 1 1 0 0 -0 -2 -1 -1 -1 -1 -1 -1 -1 -0 -0 -1 -0 -0 1 0 1 1 1 0 0 0 -0 -0 -0 -1
3 2 2 1 1 1 0 0 -0 -0 -0 -0 -0 -0 0 0 0 0 -1 -1 -1 -1 -1 -1 -1 -1 -0 -0 -0 -0 1 1 0 2 2 4 2 1 1 0 0 0 -1
3 3 2 2 1 1 1 0 0 -0 -0 -1 -0 -0 -0 -0 0 -0 -0 -1 -1 -1 -1 -1 -1 -1 -1 0 -0 -0 0 2 1 0 2 5 6 3 1 2 2 2 0
3 2 2 2 1 1 0 0 0 -0 -0 -1 -0 -0 1 2 1 -0 -0 -1 -1 -1 -1 -1 -1 -1 -0 -0 -0 -0 0 0 2 0 1 1 2 5 5 3 3 2 2
3 3 2 2 1 1 1 0 0 0 -0 -0 -0 0 1 0 0 -0 -0 -1 -1 -1 -1 -1 -1 -1 -0 -1 -1 -0 -0 0 1 1 1 1 2 2 4 6 5 2 1
3 2 2 1 1 1 1 0 1 1 0 -0 0 0 0 1 1 0 1 0 -0 -0 -1 -1 -1 -1 -1 -0 -0 -0 -0 -0 0 1 1 2 3 3 4 6 5 4 2
3 3 2 2 1 1 1 1 1 1 0 0 0 0 0 -0 0 0 1 0 0 0 -1 -1 -1 -0 -1 -1 -1 -0 -0 0 0 0 1 1 1 1 2 4 5 4 3
3 3 2 2 2 1 1 1 1 1 1 1 0 0 -0 0 0 -0 0 0 0 -0 -1 -1 -1 -1 -1 -1 -1 -0 -0 -0 0 0 -0 1 1 0 1 2 4 5 4
3 3 2 2 2 1 1 1 1 1 1 1 0 0 0 0 0 -0 -1 0 -0 -0 -1 -1 -1 -1 -1 -1 -1 0 -0 -0 -0 -0 0 0 0 -0 1 1 1 3 6
3 3 2 2 2 1 1 1 1 1 1 0 0 1 0 0 -0 -0 -0 -0 -1 -1 -1 -1 -1 -1 -1 -1 -1 -0 -0 0 0 0 0 0 0 0 1 1 1 1 3
3 3 2 2 2 1 1 1 1 1 1 1 0 0 0 0 0 0 -0 -0 -1 -1 -1 -0 -0 -0 -0 -1 -0 -0 0 0 0 0 0 1 -0 0 1 1 1 2 2
3 2 2 2 2 2 1 1 1 1 1 0 0 0 0 0 0 0 -0 -0 -0 -1 -0 -0 -0 -0 -0 -0 -0 0 0 1 1 1 1 1 0 0 1 1 2 3 2
2 2 2 2 2 2 1 1 1 1 1 1 1 1 1 1 0 0 -0 -0 -0 -0 -0 -0 -0 -0 -0 -0 -0 0 0 0 0 0 1 1 0 1 1 1 3 2 2
3 3 2 2 2 1 1 1 1 1 1 1 1 1 1 1 1 0 0 0 -0 -0 0 -0 -1 -0 -0 -0 -0 0 0 0 0 0 0 0 1 1 1 2 3 2 3
4 3 3 2 2 1 1 1 1 1 0 1 1 1 1 0 0 0 0 0 0 0 -0 -0 -0 -0 -0 1 0 0 0 1 0 0 0 0 0 2 1 2 3 3 3
4 3 3 3 2 2 1 1 1 1 0 1 1 1 1 1 1 0 0 0 0 0 -0 0 0 0 0 6 5 3 0 0 0 1 0 0 1 1 3 3 3 2 3
4 3 3 3 2 2 1 2 1 1 1 1 1 1 1 1 1 0 1 1 0 0 0 0 0 0 0 7 6 5 0 1 1 1 1 1 0 2 2 3 3 4 3
3 3 3 2 2 1 1 1 1 1 1 1 1 1 1 1 1 1 1 1 1 1 1 1 0 0 3 8 8 6 0 1 0 0 0 1 1 1 1 1 2 3 2
2 2 2 2 1 2 1 1 1 1 1 2 1 1 1 1 1 1 1 1 1 1 1 1 0 1 2 8 8 5 -0 1 1 0 -0 0 1 4 3 0 2 3 3
2 2 1 1 1 1 1 2 2 2 2 2 1 1 1 1 1 1 1 1 1 1 1 1 0 4 2 8 8 6 0 1 1 0 0 5 2 5 5 0 1 3 3
2 1 1 2 1 1 1 2 2 2 1 1 1 1 1 1 1 1 1 1 1 1 1 1 1 1 1 3 7 7 0 1 1 1 1 1 7 7 6 6 0 1 1
2 1 2 2 1 1 1 2 2 1 1 1 1 1 1 1 1 1 1 1 2 2 2 2 2 1 0 5 5 5 5 3 1 1 1 2 8 8 8 5 7 5 2
2 1 2 2 1 1 1 2 2 1 1 2 2 2 1 1 1 2 2 2 2 2 3 3 2 1 0 0 4 4 5 4 0 0 4 7 8 7 6 6 6 6 0
2 2 2 2 2 1 1 1 1 1 1 2 2 2 2 2 2 1 1 2 2 2 2 2 2 1 1 1 0 -0 0 4 1 3 3 4 4 6 4 4 4 1 -0
2 2 2 2 2 1 1 1 1 1 2 2 2 2 2 2 2 6 5 4 5 4 1 1 1 2 2 5 8 7 2 1 3 3 1 2 2 2 1 1 1 0 1
2 2 2 2 1 1 1 1 1 1 2 3 3 2 2 3 1 5 9 12 12 12 13 12 5 7 10 12 12 12 13 11 9 2 2 2 2 3 3 3 2 1 1